Weather Roundup
Issued by NWS Springfield, MO

Home | Current Version | Previous Version | Text Only | Print | Product List | Glossary On
Versions: 1 2 3 4 5 6 7 8 9 10 11 12 13 14 15 16 17 18 19 20 21 22 23 24 25 26 27 28 29 30 31 32 33 34 35 36 37 38 39 40 41 42 43 44 45 46 47 48 49 50
000
NZUS99 KSGF 231857
HRRSGF

HOURLY WEATHER
NATIONAL WEATHER SERVICE SPRINGFIELD MO
200 PM CDT SUN JUL 23 2017

......SGF CWA......

CITY           SKY/WX    TMP DP  RH WIND       PRES   REMARKS
SPRINGFIELD    CLOUDY    86  64  47 W5        29.95F
WEST PLAINS    MOSUNNY   95  59  30 N6        29.92F HX  94
ROLLA          CLOUDY    83  66  56 CALM      29.93F
BRANSON        PTSUNNY   91  64  40 N9        29.95F HX  93

......SURROUNDING SGF CWA......

CITY           SKY/WX    TMP DP  RH WIND       PRES   REMARKS
CHANUTE        SUNNY     88  71  57 SW7G17    29.95F HX  94
PARSONS        MOSUNNY   86  68  54 VRB5      29.96F
COFFEYVILLE    MOSUNNY   89  68  49 NE6       29.95F HX  93
EMPORIA        SUNNY     91  68  46 VRB5      29.95F HX  95
HARRISON AR    SUNNY     90  68  48 SE5       29.95F HX  94

......KANSAS AND MISSOURI......

CITY           SKY/WX    TMP DP  RH WIND       PRES   REMARKS
KANSAS CTY INT PTSUNNY   90  74  59 VRB3      29.93S HX  99
SEDALIA        MOSUNNY   88  74  63 NW5       29.93F HX  96
ST JOSEPH      MOSUNNY   90  78  68 VRB5      29.92F HX 104
ST LOUIS       PTSUNNY   90  67  46 VRB6      29.89F HX  93
WICHITA        MOSUNNY   90  69  50 CALM      29.96F HX  94
TOPEKA         SUNNY     91  74  57 VRB5      29.93F HX 100
OLATHE         SUNNY     86  74  67 SE6       29.94F HX  94

......TENNESSEE......

CITY           SKY/WX    TMP DP  RH WIND       PRES   REMARKS
MEMPHIS        NOT AVBL
NASHVILLE      PTSUNNY   93  75  55 VRB5      29.88S HX 104

......ARKANSAS.......

CITY           SKY/WX    TMP DP  RH WIND       PRES   REMARKS
FAYETTEVILLE   MOSUNNY   94  73  50 VRB6      29.91F HX 103
FT SMITH       SUNNY     95  73  48 CALM      29.87F HX 104
LITTLE ROCK    MOSUNNY   94  74  52 CALM      29.85F HX 104

......OKLAHOMA.......

CITY           SKY/WX    TMP DP  RH WIND       PRES   REMARKS
TULSA          PTSUNNY   92  69  47 N13       29.90F HX  97
PONCA CITY     CLOUDY    91  66  43 NE8       29.94S HX  93
MCALESTER      SUNNY     96  75  50 VRB7      29.89F HX 108
OKLAHOMA CITY  MOSUNNY   95  69  42 E7        29.91F HX 100

......IOWA............

CITY           SKY/WX    TMP DP  RH WIND       PRES   REMARKS
DES MOINES     NOT AVBL
QUAD CITIES    MOSUNNY   89  71  55 W18       29.82F HX  95

......ILLINOIS........

CITY           SKY/WX    TMP DP  RH WIND       PRES   REMARKS
QUINCY         NOT AVBL
CHICAGO        MOSUNNY   89  62  40 W9        29.78F




USA.gov is the U.S. government's official web portal to all federal, state and local government web resources and services.